Liberal, KS

2:05 AM CDT on May 24, 2018 (GMT -0500)
Liberal Municipal

Weather History for KLBL - April, 2014

Change the Weather History Date:

Tuesday, April 8, 2014

  Actual Average Record
Temperature  
Mean Temperature 50 °F -  
Max Temperature 69 °F 71 °F 90 °F (1991)
Min Temperature 30 °F 40 °F 21 °F (1997)
Degree Days  
Heating Degree Days 16    
Moisture  
Dew Point 28 °F    
Average Humidity 47    
Maximum Humidity 75    
Minimum Humidity 23    
Precipitation  
Precipitation 0.00 in - - ()
Sea Level Pressure  
Sea Level Pressure 30.17 in    
Wind  
Wind Speed 10 mph (NW)    
Max Wind Speed 24 mph    
Max Gust Speed 32 mph    
Visibility 10 miles    
Events      
Averages and records for this station are not official NWS values.
T = Trace of Precipitation, MM = Missing Value Source: NWS Daily Summary

Daily Weather History Graph

Daily Weather History Graph

Search for Another Location

Airport or City:

Astronomy

Apr. 08, 2014 Rise Set
Actual Time 7:19 AM CDT 8:12 PM CDT
Civil Twilight 6:52 AM CDT 8:39 PM CDT
Nautical Twilight 6:21 AM CDT 9:10 PM CDT
Astronomical Twilight 5:49 AM CDT 9:42 PM CDT
Moon 2:15 PM CDT (4/8) 3:25 AM CDT (4/8)
Length of Visible Light 13h 46m
Length of Day
12h 53m
Waxing Gibbous, 63% of the Moon is Illuminated
Apr 8
Waxing Gibbous
Apr 15
Full
Apr 22
Last Quarter
Apr 29
New
May 6
First Quarter

Hourly Weather History & Observations

Time (CDT) Temp. Windchill Dew Point Humidity Pressure Visibility Wind Dir Wind Speed Gust Speed Precip Events Conditions
12:15 AM 39.2 °F 34.2 °F 26.6 °F 61% 30.16 in 10.0 mi NW 6.9 mph - N/A   Clear
12:35 AM 35.6 °F 29.2 °F 24.8 °F 65% 30.17 in 10.0 mi WNW 8.1 mph - N/A   Clear
12:55 AM 35.6 °F 27.5 °F 24.8 °F 65% 30.18 in 10.0 mi West 11.5 mph - N/A   Clear
1:15 AM 35.6 °F 28.0 °F 26.6 °F 70% 30.18 in 10.0 mi WNW 10.4 mph - N/A   Clear
1:35 AM 35.6 °F 28.0 °F 26.6 °F 70% 30.19 in 10.0 mi WNW 10.4 mph - N/A   Clear
1:55 AM 35.6 °F 28.0 °F 26.6 °F 70% 30.19 in 10.0 mi WNW 10.4 mph - N/A   Clear
2:15 AM 35.6 °F 28.6 °F 24.8 °F 65% 30.19 in 10.0 mi WNW 9.2 mph - N/A   Clear
2:35 AM 35.6 °F 28.6 °F 26.6 °F 70% 30.19 in 10.0 mi WNW 9.2 mph - N/A   Clear
2:55 AM 33.8 °F 26.4 °F 24.8 °F 70% 30.19 in 10.0 mi WNW 9.2 mph - N/A   Clear
3:15 AM 33.8 °F 25.8 °F 24.8 °F 70% 30.19 in 10.0 mi WNW 10.4 mph - N/A   Clear
3:35 AM 33.8 °F 26.4 °F 24.8 °F 70% 30.18 in 10.0 mi WNW 9.2 mph - N/A   Clear
3:55 AM 35.6 °F 28.6 °F 24.8 °F 65% 30.18 in 10.0 mi WNW 9.2 mph - N/A   Clear
4:15 AM 33.8 °F 26.4 °F 24.8 °F 70% 30.18 in 10.0 mi WNW 9.2 mph - N/A   Clear
4:35 AM 33.8 °F 26.4 °F 24.8 °F 70% 30.18 in 10.0 mi WNW 9.2 mph - N/A   Clear
4:55 AM 32.0 °F 24.2 °F 24.8 °F 75% 30.18 in 10.0 mi WNW 9.2 mph - N/A   Clear
5:15 AM 33.8 °F 27.0 °F 24.8 °F 70% 30.17 in 10.0 mi WNW 8.1 mph - N/A   Clear
5:35 AM 32.0 °F 23.6 °F 23.0 °F 69% 30.18 in 10.0 mi WNW 10.4 mph - N/A   Clear
5:55 AM 32.0 °F 23.6 °F 23.0 °F 69% 30.18 in 10.0 mi West 10.4 mph - N/A   Clear
6:15 AM 30.2 °F 21.3 °F 23.0 °F 75% 30.19 in 10.0 mi West 10.4 mph - N/A   Clear
6:35 AM 30.2 °F 21.3 °F 23.0 °F 75% 30.19 in 10.0 mi West 10.4 mph - N/A   Clear
6:55 AM 30.2 °F 22.6 °F 21.2 °F 69% 30.19 in 10.0 mi West 8.1 mph - N/A   Clear
7:15 AM 30.2 °F 21.9 °F 21.2 °F 69% 30.19 in 10.0 mi West 9.2 mph - N/A   Clear
7:35 AM 30.2 °F 23.4 °F 23.0 °F 75% 30.19 in 10.0 mi WNW 6.9 mph - N/A   Clear
7:55 AM 30.2 °F 23.4 °F 23.0 °F 75% 30.20 in 10.0 mi West 6.9 mph - N/A   Clear
8:15 AM 33.8 °F 27.0 °F 24.8 °F 70% 30.20 in 10.0 mi WNW 8.1 mph - N/A   Clear
8:35 AM 37.4 °F 30.8 °F 26.6 °F 65% 30.21 in 10.0 mi WNW 9.2 mph - N/A   Clear
8:55 AM 39.2 °F 33.0 °F 28.4 °F 65% 30.21 in 10.0 mi WNW 9.2 mph - N/A   Clear
9:15 AM 42.8 °F 37.0 °F 28.4 °F 57% 30.21 in 10.0 mi WNW 10.4 mph - N/A   Clear
9:35 AM 46.4 °F 40.4 °F 30.2 °F 53% 30.21 in 10.0 mi WNW 13.8 mph - N/A   Clear
9:55 AM 46.4 °F 41.5 °F 30.2 °F 53% 30.21 in 10.0 mi NW 10.4 mph - N/A   Clear
10:15 AM 48.2 °F - 30.2 °F 50% 30.21 in 10.0 mi NW 9.2 mph - N/A   Clear
10:35 AM 51.8 °F - 30.2 °F 44% 30.21 in 10.0 mi WNW 5.8 mph - N/A   Clear
10:55 AM 53.6 °F - 30.2 °F 41% 30.21 in 10.0 mi WNW 13.8 mph - N/A   Clear
11:15 AM 55.4 °F - 30.2 °F 38% 30.21 in 10.0 mi NW 12.7 mph - N/A   Clear
11:35 AM 59.0 °F - 32.0 °F 36% 30.21 in 10.0 mi NW 15.0 mph 20.7 mph N/A   Clear
11:55 AM 60.8 °F - 30.2 °F 31% 30.21 in 10.0 mi NW 21.9 mph - N/A   Clear
12:15 PM 62.6 °F - 32.0 °F 32% 30.21 in 10.0 mi NW 20.7 mph 25.3 mph N/A   Clear
12:35 PM 62.6 °F - 30.2 °F 30% 30.20 in 10.0 mi NNW 24.2 mph 32.2 mph N/A   Clear
12:55 PM 64.4 °F - 30.2 °F 28% 30.19 in 10.0 mi NNW 18.4 mph 25.3 mph N/A   Clear
1:15 PM 64.4 °F - 30.2 °F 28% 30.19 in 10.0 mi NNW 19.6 mph 27.6 mph N/A   Clear
1:35 PM 66.2 °F - 32.0 °F 28% 30.18 in 10.0 mi NNW 23.0 mph 28.8 mph N/A   Clear
1:55 PM 66.2 °F - 32.0 °F 28% 30.18 in 10.0 mi North 12.7 mph 27.6 mph N/A   Clear
2:15 PM 66.2 °F - 30.2 °F 26% 30.17 in 10.0 mi NNW 16.1 mph 25.3 mph N/A   Partly Cloudy
2:35 PM 66.2 °F - 32.0 °F 28% 30.16 in 10.0 mi NNW 18.4 mph 24.2 mph N/A   Clear
2:55 PM 68.0 °F - 32.0 °F 26% 30.16 in 10.0 mi North 15.0 mph 27.6 mph N/A   Clear
3:15 PM 68.0 °F - 32.0 °F 26% 30.15 in 10.0 mi North 23.0 mph 26.5 mph N/A   Clear
3:35 PM 69.8 °F - 30.2 °F 23% 30.15 in 10.0 mi NW 16.1 mph 27.6 mph N/A   Clear
3:55 PM 69.8 °F - 32.0 °F 25% 30.14 in 10.0 mi North 17.3 mph 25.3 mph N/A   Clear
4:15 PM 69.8 °F - 30.2 °F 23% 30.14 in 10.0 mi North 12.7 mph 25.3 mph N/A   Clear
4:35 PM 69.8 °F - 30.2 °F 23% 30.13 in 10.0 mi NNW 13.8 mph 21.9 mph N/A   Clear
4:55 PM 69.8 °F - 30.2 °F 23% 30.13 in 10.0 mi North 11.5 mph 19.6 mph N/A   Clear
5:15 PM 69.8 °F - 30.2 °F 23% 30.12 in 10.0 mi North 15.0 mph 18.4 mph N/A   Clear
5:35 PM 69.8 °F - 30.2 °F 23% 30.13 in 10.0 mi North 11.5 mph 19.6 mph N/A   Clear
5:55 PM 69.8 °F - 30.2 °F 23% 30.12 in 10.0 mi NNE 6.9 mph - N/A   Clear
6:15 PM 69.8 °F - 30.2 °F 23% 30.13 in 10.0 mi NNE 8.1 mph - N/A   Clear
6:35 PM 68.0 °F - 30.2 °F 24% 30.12 in 10.0 mi North 8.1 mph - N/A   Clear
6:55 PM 68.0 °F - 30.2 °F 24% 30.12 in 10.0 mi NNE 9.2 mph - N/A   Clear
7:15 PM 66.2 °F - 30.2 °F 26% 30.12 in 10.0 mi NE 6.9 mph - N/A   Clear
7:35 PM 66.2 °F - 30.2 °F 26% 30.13 in 10.0 mi NE 5.8 mph - N/A   Clear
7:55 PM 64.4 °F - 30.2 °F 28% 30.12 in 10.0 mi East 5.8 mph - N/A   Clear
8:15 PM 62.6 °F - 28.4 °F 27% 30.13 in 10.0 mi East 5.8 mph - N/A   Clear
8:35 PM 60.8 °F - 28.4 °F 29% 30.13 in 10.0 mi ESE 4.6 mph - N/A   Clear
8:55 PM 59.0 °F - 28.4 °F 31% 30.14 in 10.0 mi ESE 5.8 mph - N/A   Clear
9:15 PM 55.4 °F - 28.4 °F 36% 30.14 in 10.0 mi SE 9.2 mph - N/A   Clear
9:35 PM 53.6 °F - 28.4 °F 38% 30.14 in 10.0 mi SE 8.1 mph - N/A   Clear
9:55 PM 51.8 °F - 28.4 °F 41% 30.14 in 10.0 mi SE 8.1 mph - N/A   Clear
10:15 PM 51.8 °F - 28.4 °F 41% 30.15 in 10.0 mi SE 9.2 mph - N/A   Clear
10:35 PM 51.8 °F - 28.4 °F 41% 30.15 in 10.0 mi SE 9.2 mph - N/A   Clear
10:55 PM 50.0 °F - 28.4 °F 43% 30.14 in 10.0 mi SE 10.4 mph - N/A   Clear
11:15 PM 48.2 °F - 28.4 °F 46% 30.14 in 10.0 mi SSE 9.2 mph - N/A   Clear
11:35 PM 48.2 °F - 28.4 °F 46% 30.14 in 10.0 mi SSE 8.1 mph - N/A   Clear
11:55 PM 44.6 °F 40.2 °F 28.4 °F 53% 30.14 in 10.0 mi South 8.1 mph - N/A   Clear